| time (UTC) | temp F | wind direction | speed knots | gust knots | rain 1hr in | rain 24hr in | rain mn in | humidity % | barometer mb |
| 20260504044559 | 73 | 115 | 5.2 | 9.6 | 0.00 | 0.00 | 0.00 | 61 | 1019.6 |
| 20260504044505 | 73 | 147 | 5.2 | 9.6 | 0.00 | 0.00 | 0.00 | 61 | 1019.6 |
| 20260504043009 | 73 | 137 | 4.3 | 13.0 | 0.00 | 0.00 | 0.00 | 60 | 1019.5 |
| 20260504041509 | 73 | 119 | 5.2 | 9.6 | 0.00 | 0.00 | 0.00 | 60 | 1019.7 |
| 20260504040014 | 73 | 128 | 7.0 | 10.4 | 0.00 | 0.00 | 0.00 | 58 | 1019.7 |
| 20260504034518 | 73 | 159 | 5.2 | 10.4 | 0.00 | 0.00 | 0.00 | 59 | 1019.6 |
| 20260504033023 | 73 | 119 | 6.1 | 12.2 | 0.00 | 0.00 | 0.00 | 59 | 1019.5 |
| 20260504031529 | 73 | 119 | 7.8 | 12.2 | 0.00 | 0.00 | 0.00 | 58 | 1019.5 |
| 20260504030039 | 73 | 119 | 5.2 | 11.3 | 0.00 | 0.00 | 0.00 | 59 | 1019.5 |
| 20260504024539 | 73 | 120 | 8.7 | 13.9 | 0.00 | 0.00 | 0.00 | 58 | 1019.5 |
| 20260504023042 | 73 | 121 | 6.1 | 10.4 | 0.00 | 0.00 | 0.00 | 58 | 1019.5 |
| 20260504021547 | 73 | 121 | 7.0 | 13.0 | 0.00 | 0.00 | 0.00 | 57 | 1019.2 |
| 20260504020040 | 73 | 127 | 6.1 | 13.9 | 0.00 | 0.00 | 0.00 | 56 | 1019.0 |
| 20260504014543 | 73 | 119 | 5.2 | 11.3 | 0.00 | 0.00 | 0.00 | 56 | 1018.9 |
| 20260504013052 | 74 | 121 | 6.1 | 11.3 | 0.00 | 0.00 | 0.00 | 56 | 1018.9 |
| 20260504011557 | 74 | 128 | 7.8 | 11.3 | 0.00 | 0.00 | 0.00 | 55 | 1018.8 |
| 20260504011500 | 74 | 120 | 7.8 | 11.3 | 0.00 | 0.00 | 0.00 | 56 | 1018.8 |
| 20260504010003 | 74 | 118 | 6.1 | 10.4 | 0.00 | 0.00 | 0.00 | 54 | 1018.9 |
| 20260504004555 | 74 | 123 | 7.0 | 9.6 | 0.00 | 0.00 | 0.00 | 54 | 1019.0 |
| 20260504004509 | 75 | 119 | 7.0 | 9.6 | 0.00 | 0.00 | 0.00 | 54 | 1019.0 |
| 20260504003101 | 75 | 121 | 7.8 | 11.3 | 0.00 | 0.00 | 0.00 | 54 | 1019.1 |
| 20260504001602 | 76 | 118 | 7.0 | 13.0 | 0.00 | 0.00 | 0.00 | 53 | 1019.0 |
| 20260504000056 | 76 | 121 | 8.7 | 12.2 | 0.00 | 0.00 | 0.00 | 53 | 1019.0 |
| 20260503234551 | 76 | 117 | 6.1 | 12.2 | 0.00 | 0.00 | 0.00 | 52 | 1019.0 |
| 20260503233054 | 76 | 108 | 5.2 | 12.2 | 0.00 | 0.00 | 0.00 | 53 | 1019.2 |
| 20260503231555 | 77 | 120 | 7.0 | 12.2 | 0.00 | 0.00 | 0.00 | 51 | 1019.3 |
| 20260503230112 | 77 | 118 | 7.0 | 13.0 | 0.00 | 0.00 | 0.00 | 52 | 1019.4 |
| 20260503224504 | 77 | 121 | 8.7 | 12.2 | 0.00 | 0.00 | 0.00 | 51 | 1019.7 |
| 20260503223008 | 78 | 119 | 7.8 | 12.2 | 0.00 | 0.00 | 0.00 | 51 | 1019.7 |
| 20260503221506 | 78 | 130 | 7.8 | 13.0 | 0.00 | 0.00 | 0.00 | 52 | 1019.6 |
| 20260503220012 | 78 | 119 | 6.1 | 12.2 | 0.00 | 0.00 | 0.00 | 52 | 1020.1 |
| 20260503214514 | 78 | 121 | 8.7 | 13.0 | 0.00 | 0.00 | 0.00 | 51 | 1020.3 |
| 20260503213006 | 78 | 105 | 8.7 | 13.0 | 0.00 | 0.00 | 0.00 | 52 | 1020.6 |
| 20260503211514 | 78 | 101 | 8.7 | 13.9 | 0.00 | 0.00 | 0.00 | 52 | 1020.8 |
| 20260503210017 | 78 | 111 | 7.0 | 13.0 | 0.00 | 0.00 | 0.00 | 51 | 1020.8 |
| 20260503204526 | 78 | 106 | 8.7 | 13.9 | 0.00 | 0.00 | 0.00 | 51 | 1021.0 |
| 20260503203025 | 79 | 112 | 7.0 | 13.0 | 0.00 | 0.00 | 0.00 | 50 | 1021.1 |
| 20260503201524 | 79 | 110 | 6.1 | 11.3 | 0.00 | 0.00 | 0.00 | 49 | 1021.4 |
| 20260503200026 | 79 | 100 | 7.8 | 13.9 | 0.00 | 0.00 | 0.00 | 49 | 1021.7 |
| 20260503194529 | 79 | 99 | 6.1 | 13.0 | 0.00 | 0.00 | 0.00 | 49 | 1021.9 |
| 20260503193027 | 78 | 114 | 7.0 | 12.2 | 0.00 | 0.00 | 0.00 | 48 | 1022.0 |
| 20260503191528 | 79 | 111 | 7.0 | 12.2 | 0.00 | 0.00 | 0.00 | 49 | 1022.2 |
| 20260503190040 | 79 | 128 | 7.0 | 10.4 | 0.00 | 0.00 | 0.00 | 46 | 1022.3 |
| 20260503184536 | 78 | 111 | 7.0 | 11.3 | 0.00 | 0.00 | 0.00 | 46 | 1022.6 |
| 20260503183022 | 78 | 98 | 6.1 | 10.4 | 0.00 | 0.00 | 0.00 | 45 | 1022.8 |
| 20260503181544 | 79 | 112 | 6.1 | 10.4 | 0.00 | 0.00 | 0.00 | 46 | 1023.0 |
| 20260503180040 | 79 | 107 | 6.1 | 8.7 | 0.00 | 0.00 | 0.00 | 45 | 1023.2 |
| 20260503174530 | 78 | 96 | 6.1 | 13.0 | 0.00 | 0.00 | 0.00 | 46 | 1023.3 |
| 20260503173031 | 79 | 102 | 4.3 | 11.3 | 0.00 | 0.00 | 0.00 | 46 | 1023.5 |
| 20260503171539 | 79 | 110 | 6.1 | 10.4 | 0.00 | 0.00 | 0.00 | 45 | 1023.6 |
| 20260503081558 | 70 | 11 | 0.9 | 2.6 | 0.00 | 0.00 | 0.00 | 66 | 1022.1 |
| 20260503081501 | 69 | 11 | 0.9 | 2.6 | 0.00 | 0.00 | 0.00 | 66 | 1022.1 |
| 20260503071517 | 69 | 11 | 1.7 | 4.3 | 0.00 | 0.00 | 0.00 | 65 | 1022.2 |